Regional Weather Roundup
Issued by NWS State College, PA

Home | Current Version | Previous Version | Text Only | Print | Product List | Glossary Off
Versions: 1 2 3 4 5 6 7 8 9 10 11 12 13 14 15 16 17 18 19 20 21 22 23 24 25 26 27 28 29 30 31 32 33 34 35 36 37 38 39 40 41 42 43 44 45 46 47 48 49 50

000
ASUS41 KCTP 251403
RWRCTP

REGIONAL WEATHER ROUNDUP
NATIONAL WEATHER SERVICE STATE COLLEGE PA
1000 AM EDT THU AUG 25 2016

Note: "fair" indicates few or no clouds below 12,000 feet with no
significant weather and/or obstructions to visibility.

* = STATION THAT DOES NOT REPORT PRECIPITATION /E.G. RAIN...SNOW...ETC/
    THUNDER OR FOG.

PAZ002>004-007>009-013>016-020>023-029>032-251500-
WESTERN PENNSYLVANIA

CITY           SKY/WX    TMP DP  RH WIND       PRES   REMARKS
ERIE           PTSUNNY   78  73  84 W12       30.01R
MEADVILLE      CLOUDY    74  70  87 W8        30.06R
FRANKLIN*      CLOUDY    73  70  88 SW8       30.08S
NEW CASTLE     CLOUDY    76  72  87 SW6       30.08S
BEAVER COUNTY  CLOUDY    79  70  73 W5        30.09R
BUTLER*        NOT AVBL
PITTSBURGH INT PTSUNNY   77  70  79 SW12      30.09S
PITTSBURGH     CLOUDY    76  69  79 SW13      30.10S
INDIANA*       CLOUDY    73  72  94 W10       30.13R
LATROBE        PTSUNNY   73  73 100 SW12      30.12R
WASHINGTON CO* CLOUDY    75  70  83 SW7       30.12S
$$

PAZ004>006-010>012-017>019-024>028-033>037-041-042-045-046-049>053-251500-
CENTRAL PENNSYLVANIA

CITY           SKY/WX    TMP DP  RH WIND       PRES   REMARKS
BRADFORD       CLOUDY    70  70 100 W5        30.07R
DUBOIS         CLOUDY    72  68  87 W13       30.09R
CLEARFIELD     CLOUDY    72  69  90 SW8       30.08S
JOHNSTOWN      CLOUDY    71  69  93 SW10      30.14S
ALTOONA        CLOUDY    74  69  85 SW8       30.11S
STATE COLLEGE  PTSUNNY   73  68  83 SW5       30.08S
WILLIAMSPORT   CLOUDY    74  64  71 E7        30.04S
SELINSGROVE    CLOUDY    73  68  84 S6        30.07S
FT INDIANTOWN  PTSUNNY   72  65  77 SW5       30.09F
CAPITAL CITY   CLOUDY    75  65  70 VRB3      30.08F
HARRISBURG     CLOUDY    75  67  76 SE5       30.08F
YORK           CLOUDY    76  66  71 CALM      30.09F
$$

PAZ038>040-043-044-047-048-054-055-060>062-067>071-251500-
EASTERN PENNSYLVANIA

CITY           SKY/WX    TMP DP  RH WIND       PRES   REMARKS
SCRANTON       MOSUNNY   76  66  71 SW8       30.07F
MOUNT POCONO   MOSUNNY   70  63  78 S8        30.14F
ALLENTOWN      MOSUNNY   75  65  70 SW8       30.10F
QUAKERTOWN*    MOSUNNY   75  66  73 CALM      30.12F
READING        SUNNY     77  66  68 S8        30.08F
LANCASTER      MOSUNNY   77  69  76 VRB6      30.09F
COATESVILLE    SUNNY     75  68  78 VRB7      30.13S
POTTSTOWN      SUNNY     76  67  73 S9        30.12F
BLUE BELL      SUNNY     77  66  69 SW9       30.11S
DOYLESTOWN     MOSUNNY   77  67  71 VRB7      30.11F
WILLOW GROVE   NOT AVBL
NORTH PHILA    MOSUNNY   80  67  64 SW8       30.13S
PHILADELPHIA   PTSUNNY   78  66  66 SW13      30.11F
$$




USA.gov is the U.S. government's official web portal to all federal, state and local government web resources and services.